owner,sensor,date,latitude,longitude,vertical_datum,wind_speed,wind_to_direction,wind_speed_of_gust,qcFlag 
TABS,ioos:station:wmo:42043:1,2009-09-01T00:00:00Z,28.9818,-94.9186,4.0,4.726986355,77.7863311,6.28,'11111222,11111222,11111222' 
TABS,ioos:station:wmo:42043:1,2009-09-01T00:30:00Z,28.9818,-94.9186,4.0,4.589400832,79.32626514,6.13,'11111222,11111222,11111222' 
TABS,ioos:station:wmo:42043:1,2009-09-01T01:00:00Z,28.9818,-94.9186,4.0,4.424624278,72.50654695,5.85,'11111222,11111222,11111222' 
TABS,ioos:station:wmo:42043:1,2009-09-01T01:30:00Z,28.9818,-94.9186,4.0,4.395281561,79.37994864,5.87,'11111222,11111222,11111222' 
TABS,ioos:station:wmo:42043:1,2009-09-01T02:00:00Z,28.9818,-94.9186,4.0,4.265606639,82.59135228,5.44,'11111222,11111222,11111222' 
TABS,ioos:station:wmo:42043:1,2009-09-01T02:30:00Z,28.9818,-94.9186,4.0,4.290291365,89.3318279,5.28,'11111222,11111222,11111222' 
TABS,ioos:station:wmo:42043:1,2009-09-01T03:00:00Z,28.9818,-94.9186,4.0,4.414702708,85.32217216,5.82,'11111222,11111222,11111222' 
TABS,ioos:station:wmo:42043:1,2009-09-01T03:30:00Z,28.9818,-94.9186,4.0,4.224038352,83.88408982,5.58,'11111222,11111222,11111222' 
TABS,ioos:station:wmo:42043:1,2009-09-01T04:00:00Z,28.9818,-94.9186,4.0,4.313420916,85.47863176,5.91,'11111222,11111222,11111222' 
TABS,ioos:station:wmo:42043:1,2009-09-01T04:30:00Z,28.9818,-94.9186,4.0,4.681132342,72.72591256,6.17,'11111222,11111222,11111222' 
TABS,ioos:station:wmo:42043:1,2009-09-01T05:00:00Z,28.9818,-94.9186,4.0,5.098519393,75.22745152,6.55,'11111222,11111222,11111222' 
TABS,ioos:station:wmo:42043:1,2009-09-01T05:30:00Z,28.9818,-94.9186,4.0,4.281366604,69.49057124,6.09,'11111222,11111222,11111222' 
TABS,ioos:station:wmo:42043:1,2009-09-01T06:00:00Z,28.9818,-94.9186,4.0,4.226925597,77.70603936,5.4,'11111222,11111222,11111222' 
TABS,ioos:station:wmo:42043:1,2009-09-01T06:30:00Z,28.9818,-94.9186,4.0,3.932047813,76.91761852,5.61,'11111222,11111222,11111222' 
TABS,ioos:station:wmo:42043:1,2009-09-01T07:00:00Z,28.9818,-94.9186,4.0,4.275792324,77.84869646,5.62,'11111222,11111222,11111222' 
TABS,ioos:station:wmo:42043:1,2009-09-01T07:30:00Z,28.9818,-94.9186,4.0,3.892968019,80.537279,5.11,'11111222,11111222,11111222' 
TABS,ioos:station:wmo:42043:1,2009-09-01T08:00:00Z,28.9818,-94.9186,4.0,3.794008434,73.61859941,4.98,'11111222,11111222,11111222' 
TABS,ioos:station:wmo:42043:1,2009-09-01T08:30:00Z,28.9818,-94.9186,4.0,4.154635965,75.9299209,5.09,'11111222,11111222,11111222' 
TABS,ioos:station:wmo:42043:1,2009-09-01T09:00:00Z,28.9818,-94.9186,4.0,4.048826991,65.01694025,4.89,'11111222,11111222,11111222' 
TABS,ioos:station:wmo:42043:1,2009-09-01T09:30:00Z,28.9818,-94.9186,4.0,4.529293543,56.80078408,5.69,'11111222,11111222,11111222' 
TABS,ioos:station:wmo:42043:1,2009-09-01T10:00:00Z,28.9818,-94.9186,4.0,5.857550683,58.04611258,7.85,'11111222,11111222,11111222' 
TABS,ioos:station:wmo:42043:1,2009-09-01T10:30:00Z,28.9818,-94.9186,4.0,6.491178629,61.97388735,7.98,'11111222,11111222,11111222' 
TABS,ioos:station:wmo:42043:1,2009-09-01T11:00:00Z,28.9818,-94.9186,4.0,6.531186722,66.73192868,8.43,'11111222,11111222,11111222' 
TABS,ioos:station:wmo:42043:1,2009-09-01T11:30:00Z,28.9818,-94.9186,4.0,6.081266315,65.41532769,7.85,'11111222,11111222,11111222' 
TABS,ioos:station:wmo:42043:1,2009-09-01T12:00:00Z,28.9818,-94.9186,4.0,6.343886821,66.10133778,7.96,'11111222,11111222,11111222' 
TABS,ioos:station:wmo:42043:1,2009-09-01T12:30:00Z,28.9818,-94.9186,4.0,5.951974462,70.7731792,7.62,'11111222,11111222,11111222' 
TABS,ioos:station:wmo:42043:1,2009-09-01T13:00:00Z,28.9818,-94.9186,4.0,6.0210049,65.98883617,7.59,'11111222,11111222,11111222' 
TABS,ioos:station:wmo:42043:1,2009-09-01T13:30:00Z,28.9818,-94.9186,4.0,5.795731188,65.64567883,7.21,'11111222,11111222,11111222' 
TABS,ioos:station:wmo:42043:1,2009-09-01T14:00:00Z,28.9818,-94.9186,4.0,5.622001423,65.8508868,7.27,'11111222,11111222,11111222' 
TABS,ioos:station:wmo:42043:1,2009-09-01T14:30:00Z,28.9818,-94.9186,4.0,5.420452011,68.11970655,6.71,'11111222,11111222,11111222' 
TABS,ioos:station:wmo:42043:1,2009-09-01T15:00:00Z,28.9818,-94.9186,4.0,5.661740015,63.57036144,7.17,'11111222,11111222,11111222' 
TABS,ioos:station:wmo:42043:1,2009-09-01T15:30:00Z,28.9818,-94.9186,4.0,5.737264156,70.55405016,7.28,'11111222,11111222,11111222' 
TABS,ioos:station:wmo:42043:1,2009-09-01T16:00:00Z,28.9818,-94.9186,4.0,5.616805142,69.46746009,7.31,'11111222,11111222,11111222' 
TABS,ioos:station:wmo:42043:1,2009-09-01T16:30:00Z,28.9818,-94.9186,4.0,5.625237773,65.53039282,7.04,'11111222,11111222,11111222' 
TABS,ioos:station:wmo:42043:1,2009-09-01T17:00:00Z,28.9818,-94.9186,4.0,5.467741764,66.38825712,7.02,'11111222,11111222,11111222' 
TABS,ioos:station:wmo:42043:1,2009-09-01T17:30:00Z,28.9818,-94.9186,4.0,5.344698308,56.75557753,7.35,'11111222,11111222,11111222' 
TABS,ioos:station:wmo:42043:1,2009-09-01T18:00:00Z,28.9818,-94.9186,4.0,4.826354732,60.72596223,5.95,'11111222,11111222,11111222' 
TABS,ioos:station:wmo:42043:1,2009-09-01T18:30:00Z,28.9818,-94.9186,4.0,5.196479578,59.33844341,6.72,'11111222,11111222,11111222' 
TABS,ioos:station:wmo:42043:1,2009-09-01T19:00:00Z,28.9818,-94.9186,4.0,4.769926624,70.27308056,6.01,'11111222,11111222,11111222' 
TABS,ioos:station:wmo:42043:1,2009-09-01T19:30:00Z,28.9818,-94.9186,4.0,4.558168492,64.67139906,5.81,'11111222,11111222,11111222' 
TABS,ioos:station:wmo:42043:1,2009-09-01T20:00:00Z,28.9818,-94.9186,4.0,4.214273366,53.78237137,5.64,'11111222,11111222,11111222' 
TABS,ioos:station:wmo:42043:1,2009-09-01T20:30:00Z,28.9818,-94.9186,4.0,4.149566242,51.55550058,5.45,'11111222,11111222,11111222' 
TABS,ioos:station:wmo:42043:1,2009-09-01T21:00:00Z,28.9818,-94.9186,4.0,4.26971896,57.72401024,5.53,'11111222,11111222,11111222' 
TABS,ioos:station:wmo:42043:1,2009-09-01T21:30:00Z,28.9818,-94.9186,4.0,3.40261664,49.05135868,5.05,'11111222,11111222,11111222' 
TABS,ioos:station:wmo:42043:1,2009-09-01T22:00:00Z,28.9818,-94.9186,4.0,3.494137948,43.60816091,4.6,'11111222,11111222,11111222' 
TABS,ioos:station:wmo:42043:1,2009-09-01T22:30:00Z,28.9818,-94.9186,4.0,3.330540497,54.16200993,4.51,'11111222,11111222,11111222' 
TABS,ioos:station:wmo:42043:1,2009-09-01T23:00:00Z,28.9818,-94.9186,4.0,2.807935184,43.70101303,3.95,'11111222,11111222,11111222' 
TABS,ioos:station:wmo:42043:1,2009-09-01T23:30:00Z,28.9818,-94.9186,4.0,2.158703314,66.52223409,3.14,'11111222,11111222,11111222' 
TABS,ioos:station:wmo:42043:1,2009-09-02T00:00:00Z,28.9818,-94.9186,4.0,2.514060461,71.20432815,3.88,'11111222,11111222,11111222' 
TABS,ioos:station:wmo:42043:1,2009-09-02T00:30:00Z,28.9818,-94.9186,4.0,1.537075145,70.62162034,2.53,'11111222,11111222,11111222' 
TABS,ioos:station:wmo:42043:1,2009-09-02T01:00:00Z,28.9818,-94.9186,4.0,1.578923684,38.82952365,2.85,'11111222,11111222,11111222' 
TABS,ioos:station:wmo:42043:1,2009-09-02T01:30:00Z,28.9818,-94.9186,4.0,1.09808925,37.60010696,2.28,'11111222,11111222,11111222' 
TABS,ioos:station:wmo:42043:1,2009-09-02T02:00:00Z,28.9818,-94.9186,4.0,1.636856744,63.90421595,2.82,'11111222,11111222,11111222' 
TABS,ioos:station:wmo:42043:1,2009-09-02T02:30:00Z,28.9818,-94.9186,4.0,1.914706244,61.96236249,3.02,'11111222,11111222,11111222' 
TABS,ioos:station:wmo:42043:1,2009-09-02T03:00:00Z,28.9818,-94.9186,4.0,2.035927307,65.32277362,3.39,'11111222,11111222,11111222' 
TABS,ioos:station:wmo:42043:1,2009-09-02T03:30:00Z,28.9818,-94.9186,4.0,2.013578903,56.54634786,3.28,'11111222,11111222,11111222' 
TABS,ioos:station:wmo:42043:1,2009-09-02T04:00:00Z,28.9818,-94.9186,4.0,1.529705854,41.81986163,2.19,'11111222,11111222,11111222' 
TABS,ioos:station:wmo:42043:1,2009-09-02T04:30:00Z,28.9818,-94.9186,4.0,1.514892735,51.16265877,2.67,'11111222,11111222,11111222' 
TABS,ioos:station:wmo:42043:1,2009-09-02T05:00:00Z,28.9818,-94.9186,4.0,1.40346001,124.2565537,2.13,'11111222,11111222,11111222' 
TABS,ioos:station:wmo:42043:1,2009-09-02T05:30:00Z,28.9818,-94.9186,4.0,1.60178026,61.67466301,2.89,'11111222,11111222,11111222' 
TABS,ioos:station:wmo:42043:1,2009-09-02T06:00:00Z,28.9818,-94.9186,4.0,2.510239032,34.44945503,3.85,'11111222,11111222,11111222' 
TABS,ioos:station:wmo:42043:1,2009-09-02T06:30:00Z,28.9818,-94.9186,4.0,2.366030431,34.49575999,3.24,'11111222,11111222,11111222' 
TABS,ioos:station:wmo:42043:1,2009-09-02T07:00:00Z,28.9818,-94.9186,4.0,3.36407491,23.28778029,4.31,'11111222,11111222,11111222' 
TABS,ioos:station:wmo:42043:1,2009-09-02T07:30:00Z,28.9818,-94.9186,4.0,4.764546148,42.19248797,6.42,'11111222,11111222,11111222' 
TABS,ioos:station:wmo:42043:1,2009-09-02T08:00:00Z,28.9818,-94.9186,4.0,4.186322969,41.61049967,5.6,'11111222,11111222,11111222' 
TABS,ioos:station:wmo:42043:1,2009-09-02T08:30:00Z,28.9818,-94.9186,4.0,4.390626379,31.5901198,5.34,'11111222,11111222,11111222' 
TABS,ioos:station:wmo:42043:1,2009-09-02T09:00:00Z,28.9818,-94.9186,4.0,3.532208941,47.63869797,4.61,'11111222,11111222,11111222' 
TABS,ioos:station:wmo:42043:1,2009-09-02T09:30:00Z,28.9818,-94.9186,4.0,2.549392084,57.49398881,3.89,'11111222,11111222,11111222' 
TABS,ioos:station:wmo:42043:1,2009-09-02T10:00:00Z,28.9818,-94.9186,4.0,2.96863605,75.96336844,3.95,'11111222,11111222,11111222' 
TABS,ioos:station:wmo:42043:1,2009-09-02T10:30:00Z,28.9818,-94.9186,4.0,3.774453603,95.01617589,5.99,'11111222,11111222,11111222' 
TABS,ioos:station:wmo:42043:1,2009-09-02T11:00:00Z,28.9818,-94.9186,4.0,4.614065453,85.52469304,6.58,'11111222,11111222,11111222' 
TABS,ioos:station:wmo:42043:1,2009-09-02T11:30:00Z,28.9818,-94.9186,4.0,3.848649114,80.87992295,5.38,'11111222,11111222,11111222' 
TABS,ioos:station:wmo:42043:1,2009-09-02T12:00:00Z,28.9818,-94.9186,4.0,3.562709643,81.1189407,5.36,'11111222,11111222,11111222' 
TABS,ioos:station:wmo:42043:1,2009-09-02T12:30:00Z,28.9818,-94.9186,4.0,3.256132675,77.58531547,4.8,'11111222,11111222,11111222' 
TABS,ioos:station:wmo:42043:1,2009-09-02T13:00:00Z,28.9818,-94.9186,4.0,2.794065139,84.24819044,4.1,'11111222,11111222,11111222' 
TABS,ioos:station:wmo:42043:1,2009-09-02T13:30:00Z,28.9818,-94.9186,4.0,3.047113388,61.58427289,6.29,'11111222,11111222,11111222' 
TABS,ioos:station:wmo:42043:1,2009-09-02T14:00:00Z,28.9818,-94.9186,4.0,3.062172431,68.54567323,4.4,'11111222,11111222,11111222' 
TABS,ioos:station:wmo:42043:1,2009-09-02T14:30:00Z,28.9818,-94.9186,4.0,2.899275772,67.06053219,4.39,'11111222,11111222,11111222' 
TABS,ioos:station:wmo:42043:1,2009-09-02T15:00:00Z,28.9818,-94.9186,4.0,1.714205355,57.14393396,3.44,'11111222,11111222,11111222' 
TABS,ioos:station:wmo:42043:1,2009-09-02T15:30:00Z,28.9818,-94.9186,4.0,2.230425968,50.45722504,3.41,'11111222,11111222,11111222' 
TABS,ioos:station:wmo:42043:1,2009-09-02T16:00:00Z,28.9818,-94.9186,4.0,2.205855843,57.96673797,4.02,'11111222,11111222,11111222' 
TABS,ioos:station:wmo:42043:1,2009-09-02T16:30:00Z,28.9818,-94.9186,4.0,2.210090496,36.35110249,3.92,'11111222,11111222,11111222' 
TABS,ioos:station:wmo:42043:1,2009-09-02T17:00:00Z,28.9818,-94.9186,4.0,2.892334697,35.99795024,4.12,'11111222,11111222,11111222' 
TABS,ioos:station:wmo:42043:1,2009-09-02T17:30:00Z,28.9818,-94.9186,4.0,2.358007634,36.72381084,3.33,'11111222,11111222,11111222' 
TABS,ioos:station:wmo:42043:1,2009-09-02T18:00:00Z,28.9818,-94.9186,4.0,2.274818674,32.43227095,3.46,'11111222,11111222,11111222' 
TABS,ioos:station:wmo:42043:1,2009-09-02T18:30:00Z,28.9818,-94.9186,4.0,2.639337038,51.30595849,4.17,'11111222,11111222,11111222' 
TABS,ioos:station:wmo:42043:1,2009-09-02T19:00:00Z,28.9818,-94.9186,4.0,2.900775758,75.62802986,4.15,'11111222,11111222,11111222' 
TABS,ioos:station:wmo:42043:1,2009-09-02T19:30:00Z,28.9818,-94.9186,4.0,3.689579922,63.08734794,4.9,'11111222,11111222,11111222' 
TABS,ioos:station:wmo:42043:1,2009-09-02T20:00:00Z,28.9818,-94.9186,4.0,3.542315627,72.58770116,4.62,'11111222,11111222,11111222' 
TABS,ioos:station:wmo:42043:1,2009-09-02T20:30:00Z,28.9818,-94.9186,4.0,3.423813663,81.94049403,4.63,'11111222,11111222,11111222' 
TABS,ioos:station:wmo:42043:1,2009-09-02T21:00:00Z,28.9818,-94.9186,4.0,3.359315406,94.26830424,4.9,'11111222,11111222,11111222' 
TABS,ioos:station:wmo:42043:1,2009-09-02T21:30:00Z,28.9818,-94.9186,4.0,2.558632447,85.29173785,4.14,'11111222,11111222,11111222' 
TABS,ioos:station:wmo:42043:1,2009-09-02T22:00:00Z,28.9818,-94.9186,4.0,3.932492848,87.95937556,4.85,'11111222,11111222,11111222' 
TABS,ioos:station:wmo:42043:1,2009-09-02T22:30:00Z,28.9818,-94.9186,4.0,3.500128569,90.49151442,4.67,'11111222,11111222,11111222' 
TABS,ioos:station:wmo:42043:1,2009-09-02T23:00:00Z,28.9818,-94.9186,4.0,3.512563167,100.8304751,4.77,'11111222,11111222,11111222' 
TABS,ioos:station:wmo:42043:1,2009-09-02T23:30:00Z,28.9818,-94.9186,4.0,3.116424233,93.67996155,4.71,'11111222,11111222,11111222' 
TABS,ioos:station:wmo:42043:1,2009-09-03T00:00:00Z,28.9818,-94.9186,4.0,3.753571632,96.42488087,5.29,'11111222,11111222,11111222' 
TABS,ioos:station:wmo:42043:1,2009-09-03T00:30:00Z,28.9818,-94.9186,4.0,3.798117955,109.0554884,4.89,'11111222,11111222,11111222' 
TABS,ioos:station:wmo:42043:1,2009-09-03T01:00:00Z,28.9818,-94.9186,4.0,4.462566526,109.3691914,5.85,'11111222,11111222,11111222' 
TABS,ioos:station:wmo:42043:1,2009-09-03T01:30:00Z,28.9818,-94.9186,4.0,4.25174082,121.6343341,5.6,'11111222,11111222,11111222' 
TABS,ioos:station:wmo:42043:1,2009-09-03T02:00:00Z,28.9818,-94.9186,4.0,4.465344332,132.7314688,5.7,'11111222,11111222,11111222' 
TABS,ioos:station:wmo:42043:1,2009-09-03T02:30:00Z,28.9818,-94.9186,4.0,4.035554485,141.5400509,5.31,'11111222,11111222,11111222' 
TABS,ioos:station:wmo:42043:1,2009-09-03T03:00:00Z,28.9818,-94.9186,4.0,3.543458762,133.7425296,4.75,'11111222,11111222,11111222' 
TABS,ioos:station:wmo:42043:1,2009-09-03T03:30:00Z,28.9818,-94.9186,4.0,3.010066444,143.5110954,4.09,'11111222,11111222,11111222' 
TABS,ioos:station:wmo:42043:1,2009-09-03T04:00:00Z,28.9818,-94.9186,4.0,2.959746611,147.276692,3.91,'11111222,11111222,11111222' 
TABS,ioos:station:wmo:42043:1,2009-09-03T04:30:00Z,28.9818,-94.9186,4.0,2.510239032,134.8389199,3.5,'11111222,11111222,11111222' 
TABS,ioos:station:wmo:42043:1,2009-09-03T05:00:00Z,28.9818,-94.9186,4.0,1.380036231,126.4550538,2.36,'11111222,11111222,11111222' 
TABS,ioos:station:wmo:42043:1,2009-09-03T05:30:00Z,28.9818,-94.9186,4.0,1.524860649,106.7716055,2.34,'11111222,11111222,11111222' 
TABS,ioos:station:wmo:42043:1,2009-09-03T06:00:00Z,28.9818,-94.9186,4.0,2.578468538,73.32165757,3.21,'11111222,11111222,11111222' 
TABS,ioos:station:wmo:42043:1,2009-09-03T06:30:00Z,28.9818,-94.9186,4.0,2.171865558,66.38536223,3.52,'11111222,11111222,11111222' 
TABS,ioos:station:wmo:42043:1,2009-09-03T07:00:00Z,28.9818,-94.9186,4.0,1.500833102,60.01800982,2.24,'11111222,11111222,11111222' 
TABS,ioos:station:wmo:42043:1,2009-09-03T07:30:00Z,28.9818,-94.9186,4.0,1.954200604,53.95073402,3.09,'11111222,11111222,11111222' 
TABS,ioos:station:wmo:42043:1,2009-09-03T08:00:00Z,28.9818,-94.9186,4.0,2.160925728,30.59969668,3.17,'11111222,11111222,11111222' 
TABS,ioos:station:wmo:42043:1,2009-09-03T08:30:00Z,28.9818,-94.9186,4.0,1.842851052,38.61095177,2.62,'11111222,11111222,11111222' 
TABS,ioos:station:wmo:42043:1,2009-09-03T09:00:00Z,28.9818,-94.9186,4.0,1.366235704,19.23041695,2.09,'11111222,11111222,11111222' 
TABS,ioos:station:wmo:42043:1,2009-09-03T09:30:00Z,28.9818,-94.9186,4.0,1.794268653,24.70796409,2.8,'11111222,11111222,11111222' 
TABS,ioos:station:wmo:42043:1,2009-09-03T10:00:00Z,28.9818,-94.9186,4.0,1.261427762,2.72609416,1.93,'11111222,11111222,11111222' 
TABS,ioos:station:wmo:42043:1,2009-09-03T10:30:00Z,28.9818,-94.9186,4.0,1.258014308,336.0836001,2.02,'11111222,11111222,11111222' 
TABS,ioos:station:wmo:42043:1,2009-09-03T11:00:00Z,28.9818,-94.9186,4.0,1.807124788,339.2582501,2.65,'11111222,11111222,11111222' 
TABS,ioos:station:wmo:42043:1,2009-09-03T11:30:00Z,28.9818,-94.9186,4.0,2.001049725,6.023768537,3.01,'11111222,11111222,11111222' 
TABS,ioos:station:wmo:42043:1,2009-09-03T12:00:00Z,28.9818,-94.9186,4.0,1.871817299,21.6306258,3.0,'11111222,11111222,11111222' 
TABS,ioos:station:wmo:42043:1,2009-09-03T12:30:00Z,28.9818,-94.9186,4.0,1.945044987,355.8722075,2.93,'11111222,11111222,11111222' 
TABS,ioos:station:wmo:42043:1,2009-09-03T13:00:00Z,28.9818,-94.9186,4.0,2.185520533,353.1674438,3.33,'11111222,11111222,11111222' 
TABS,ioos:station:wmo:42043:1,2009-09-03T13:30:00Z,28.9818,-94.9186,4.0,2.34957443,18.35758138,3.31,'11111222,11111222,11111222' 
TABS,ioos:station:wmo:42043:1,2009-09-03T14:00:00Z,28.9818,-94.9186,4.0,2.458007323,351.3422583,3.4,'11111222,11111222,11111222' 
TABS,ioos:station:wmo:42043:1,2009-09-03T14:30:00Z,28.9818,-94.9186,4.0,2.795084972,354.0444452,3.85,'11111222,11111222,11111222' 
TABS,ioos:station:wmo:42043:1,2009-09-03T15:00:00Z,28.9818,-94.9186,4.0,3.848376281,335.4326757,4.59,'11111222,11111222,11111222' 
TABS,ioos:station:wmo:42043:1,2009-09-03T15:30:00Z,28.9818,-94.9186,4.0,3.824604555,347.9259868,4.92,'11111222,11111222,11111222' 
TABS,ioos:station:wmo:42043:1,2009-09-03T16:00:00Z,28.9818,-94.9186,4.0,3.690487773,0.931343961,5.09,'11111222,11111222,11111222' 
TABS,ioos:station:wmo:42043:1,2009-09-03T16:30:00Z,28.9818,-94.9186,4.0,3.52115038,1.464415922,5.09,'11111222,11111222,11111222' 
TABS,ioos:station:wmo:42043:1,2009-09-03T17:00:00Z,28.9818,-94.9186,4.0,3.592436499,18.83817905,4.84,'11111222,11111222,11111222' 
TABS,ioos:station:wmo:42043:1,2009-09-03T17:30:00Z,28.9818,-94.9186,4.0,3.695673146,42.14823469,4.92,'11111222,11111222,11111222' 
TABS,ioos:station:wmo:42043:1,2009-09-03T18:00:00Z,28.9818,-94.9186,4.0,3.154821707,51.82204092,4.59,'11111222,11111222,11111222' 
TABS,ioos:station:wmo:42043:1,2009-09-03T18:30:00Z,28.9818,-94.9186,4.0,3.680013587,73.58371809,5.84,'11111222,11111222,11111222' 
TABS,ioos:station:wmo:42043:1,2009-09-03T19:00:00Z,28.9818,-94.9186,4.0,3.769098035,75.55780758,4.85,'11111222,11111222,11111222' 
TABS,ioos:station:wmo:42043:1,2009-09-03T19:30:00Z,28.9818,-94.9186,4.0,4.101755722,91.67688804,5.25,'11111222,11111222,11111222' 
TABS,ioos:station:wmo:42043:1,2009-09-03T20:00:00Z,28.9818,-94.9186,4.0,4.574374274,92.50629001,5.81,'11111222,11111222,11111222' 
TABS,ioos:station:wmo:42043:1,2009-09-03T20:30:00Z,28.9818,-94.9186,4.0,3.931831634,91.74936287,5.28,'11111222,11111222,11111222' 
TABS,ioos:station:wmo:42043:1,2009-09-03T21:00:00Z,28.9818,-94.9186,4.0,4.283479894,101.9923857,5.42,'11111222,11111222,11111222' 
TABS,ioos:station:wmo:42043:1,2009-09-03T21:30:00Z,28.9818,-94.9186,4.0,4.558343998,106.9644917,5.95,'11111222,11111222,11111222' 
TABS,ioos:station:wmo:42043:1,2009-09-03T22:00:00Z,28.9818,-94.9186,4.0,4.696647741,107.4708446,6.1,'11111222,11111222,11111222' 
TABS,ioos:station:wmo:42043:1,2009-09-03T22:30:00Z,28.9818,-94.9186,4.0,5.654591055,115.1151971,7.17,'11111222,11111222,11111222' 
TABS,ioos:station:wmo:42043:1,2009-09-03T23:00:00Z,28.9818,-94.9186,4.0,5.45,109.7319887,7.32,'11111222,11111222,11111222' 
TABS,ioos:station:wmo:42043:1,2009-09-03T23:30:00Z,28.9818,-94.9186,4.0,4.850154637,120.4778736,6.53,'11111222,11111222,11111222' 
TABS,ioos:station:wmo:42043:1,2009-09-04T00:00:00Z,28.9818,-94.9186,4.0,3.88542147,104.0008665,5.49,'11111222,11111222,11111222' 
TABS,ioos:station:wmo:42043:1,2009-09-04T00:30:00Z,28.9818,-94.9186,4.0,4.915862081,115.4186075,6.85,'11111222,11111222,11111222' 
TABS,ioos:station:wmo:42043:1,2009-09-04T01:00:00Z,28.9818,-94.9186,4.0,5.233593412,115.3413303,6.58,'11111222,11111222,11111222' 
TABS,ioos:station:wmo:42043:1,2009-09-04T01:30:00Z,28.9818,-94.9186,4.0,4.512394043,116.451841,6.24,'11111222,11111222,11111222' 
TABS,ioos:station:wmo:42043:1,2009-09-04T02:00:00Z,28.9818,-94.9186,4.0,4.777457483,122.2599794,6.55,'11111222,11111222,11111222' 
TABS,ioos:station:wmo:42043:1,2009-09-04T02:30:00Z,28.9818,-94.9186,4.0,4.603237991,131.8302571,6.07,'11111222,11111222,11111222' 
TABS,ioos:station:wmo:42043:1,2009-09-04T03:00:00Z,28.9818,-94.9186,4.0,4.775981575,146.4433124,6.06,'11111222,11111222,11111222' 
TABS,ioos:station:wmo:42043:1,2009-09-04T03:30:00Z,28.9818,-94.9186,4.0,4.236708628,155.0078852,5.56,'11111222,11111222,11111222' 
TABS,ioos:station:wmo:42043:1,2009-09-04T04:00:00Z,28.9818,-94.9186,4.0,3.390958567,160.1759439,4.67,'11111222,11111222,11111222' 
TABS,ioos:station:wmo:42043:1,2009-09-04T04:30:00Z,28.9818,-94.9186,4.0,3.737285111,149.7990209,5.06,'11111222,11111222,11111222' 
TABS,ioos:station:wmo:42043:1,2009-09-04T05:00:00Z,28.9818,-94.9186,4.0,3.435345689,152.2417348,4.87,'11111222,11111222,11111222' 
TABS,ioos:station:wmo:42043:1,2009-09-04T05:30:00Z,28.9818,-94.9186,4.0,3.600138886,153.7910904,4.87,'11111222,11111222,11111222' 
TABS,ioos:station:wmo:42043:1,2009-09-04T06:00:00Z,28.9818,-94.9186,4.0,3.907019324,167.884997,5.12,'11111222,11111222,11111222' 
TABS,ioos:station:wmo:42043:1,2009-09-04T06:30:00Z,28.9818,-94.9186,4.0,3.881198269,162.9192285,5.15,'11111222,11111222,11111222' 
TABS,ioos:station:wmo:42043:1,2009-09-04T07:00:00Z,28.9818,-94.9186,4.0,3.031369328,159.5327007,4.39,'11111222,11111222,11111222' 
TABS,ioos:station:wmo:42043:1,2009-09-04T07:30:00Z,28.9818,-94.9186,4.0,2.570291812,159.0267661,3.54,'11111222,11111222,11111222' 
TABS,ioos:station:wmo:42043:1,2009-09-04T08:00:00Z,28.9818,-94.9186,4.0,3.01869177,153.4352214,4.01,'11111222,11111222,11111222' 
TABS,ioos:station:wmo:42043:1,2009-09-04T08:30:00Z,28.9818,-94.9186,4.0,2.943501316,144.9604327,4.06,'11111222,11111222,11111222' 
TABS,ioos:station:wmo:42043:1,2009-09-04T09:00:00Z,28.9818,-94.9186,4.0,3.004163777,145.3051381,4.14,'11111222,11111222,11111222' 
TABS,ioos:station:wmo:42043:1,2009-09-04T09:30:00Z,28.9818,-94.9186,4.0,3.099322507,157.8212348,4.44,'11111222,11111222,11111222' 
TABS,ioos:station:wmo:42043:1,2009-09-04T10:00:00Z,28.9818,-94.9186,4.0,3.241388591,149.4003033,4.25,'11111222,11111222,11111222' 
TABS,ioos:station:wmo:42043:1,2009-09-04T10:30:00Z,28.9818,-94.9186,4.0,2.900775758,165.6286612,4.21,'11111222,11111222,11111222' 
TABS,ioos:station:wmo:42043:1,2009-09-04T11:00:00Z,28.9818,-94.9186,4.0,1.62963186,156.1091739,2.59,'11111222,11111222,11111222' 
TABS,ioos:station:wmo:42043:1,2009-09-04T11:30:00Z,28.9818,-94.9186,4.0,0.828552955,23.47072777,1.82,'11111222,11111222,11111222' 
TABS,ioos:station:wmo:42043:1,2009-09-04T12:00:00Z,28.9818,-94.9186,4.0,1.716420694,51.8611903,2.71,'11111222,11111222,11111222' 
TABS,ioos:station:wmo:42043:1,2009-09-04T12:30:00Z,28.9818,-94.9186,4.0,2.142195136,40.45593729,2.89,'11111222,11111222,11111222' 
TABS,ioos:station:wmo:42043:1,2009-09-04T13:00:00Z,28.9818,-94.9186,4.0,5.368621797,16.78077258,6.73,'11111222,11111222,11111222' 
TABS,ioos:station:wmo:42043:1,2009-09-04T13:30:00Z,28.9818,-94.9186,4.0,4.562280132,31.73885612,5.74,'11111222,11111222,11111222' 
TABS,ioos:station:wmo:42043:1,2009-09-04T14:00:00Z,28.9818,-94.9186,4.0,4.737193262,58.28914389,5.86,'11111222,11111222,11111222' 
TABS,ioos:station:wmo:42043:1,2009-09-04T14:30:00Z,28.9818,-94.9186,4.0,4.680267086,58.72097153,5.81,'11111222,11111222,11111222' 
TABS,ioos:station:wmo:42043:1,2009-09-04T15:00:00Z,28.9818,-94.9186,4.0,4.886921321,56.17952099,6.0,'11111222,11111222,11111222' 
TABS,ioos:station:wmo:42043:1,2009-09-04T15:30:00Z,28.9818,-94.9186,4.0,5.099343095,46.1915161,6.79,'11111222,11111222,11111222' 
TABS,ioos:station:wmo:42043:1,2009-09-04T16:00:00Z,28.9818,-94.9186,4.0,5.774426378,42.753947,7.02,'11111222,11111222,11111222' 
TABS,ioos:station:wmo:42043:1,2009-09-04T16:30:00Z,28.9818,-94.9186,4.0,6.020008306,36.96477637,6.89,'11111222,11111222,11111222' 
TABS,ioos:station:wmo:42043:1,2009-09-04T17:00:00Z,28.9818,-94.9186,4.0,5.592897281,35.02529794,6.83,'11111222,11111222,11111222' 
TABS,ioos:station:wmo:42043:1,2009-09-04T17:30:00Z,28.9818,-94.9186,4.0,5.10654482,40.55230986,6.2,'11111222,11111222,11111222' 
TABS,ioos:station:wmo:42043:1,2009-09-04T18:00:00Z,28.9818,-94.9186,4.0,4.581844607,56.48300278,5.71,'11111222,11111222,11111222' 
TABS,ioos:station:wmo:42043:1,2009-09-04T18:30:00Z,28.9818,-94.9186,4.0,4.149566242,51.55550058,5.5,'11111222,11111222,11111222' 